Weather History for Rickenbacker, OH

Change the Weather History Date:

Wednesday, November 21, 2012

  Actual Average Record
Temperature  
Mean Temperature 50 °F -  
Max Temperature 62 °F 49 °F 69 °F (1999)
Min Temperature 36 °F 33 °F 21 °F (2000)
Degree Days  
Heating Degree Days 16    
Moisture  
Dew Point 35 °F    
Average Humidity 62    
Maximum Humidity 85    
Minimum Humidity 31    
Precipitation  
Precipitation 0.00 in - - ()
Sea Level Pressure  
Sea Level Pressure 30.19 in    
Wind  
Wind Speed 1 mph (NE)    
Max Wind Speed 6 mph    
Max Gust Speed -    
Visibility 10 miles    
Events      
Averages and records for this station are not official NWS values.
T = Trace of Precipitation, MM = Missing Value Source: NWS Daily Summary

Daily Weather History Graph

Daily Weather History Graph

Search for Another Location

Airport:

Trip Planner

Search our weather history database for the weather conditions in past years. The results will help you decide how hot, cold, wet, or windy it might be!

Date:

Astronomy

Nov. 21, 2012 Rise Set
Actual Time 7:23 AM EST 5:11 PM EST
Civil Twilight 6:54 AM EST 5:40 PM EST
Nautical Twilight 6:21 AM EST 6:13 PM EST
Astronomical Twilight 5:49 AM EST 6:45 PM EST
Moon 1:26 PM EST 12:42 AM EST
Length of Visible Light 10h 46m
Length of Day
9h 47m
First Quarter, 61% of the Moon is Illuminated
Nov 21
First Quarter
Nov 28
Full
Dec 6
Last Quarter
Dec 13
New
Dec 20
First Quarter

Hourly Weather History & Observations

Time (EST) Temp. Windchill Dew Point Humidity Pressure Visibility Wind Dir Wind Speed Gust Speed Precip Events Conditions
12:15 AM 45.7 °F - 37.6 °F 73% 30.14 in 10.0 mi Calm Calm - N/A   Overcast
12:35 AM 46.8 °F - 37.8 °F 71% 30.14 in 10.0 mi Calm Calm - N/A   Overcast
12:55 AM 45.7 °F - 37.6 °F 73% 30.13 in 10.0 mi Calm Calm - N/A   Overcast
1:15 AM 45.0 °F - 37.4 °F 75% 30.13 in 10.0 mi Calm Calm - N/A   Overcast
1:35 AM 44.4 °F - 37.4 °F 76% 30.13 in 10.0 mi Calm Calm - N/A   Overcast
1:55 AM 44.6 °F 41.4 °F 37.0 °F 75% 30.13 in 10.0 mi NE 5.8 mph - N/A   Overcast
2:15 AM 42.3 °F - 36.0 °F 78% 30.14 in 10.0 mi Calm Calm - N/A   Overcast
2:35 AM 43.0 °F - 36.3 °F 77% 30.14 in 10.0 mi Calm Calm - N/A   Overcast
2:55 AM 44.2 °F 42.7 °F 36.5 °F 74% 30.15 in 10.0 mi NE 3.5 mph - N/A   Overcast
3:15 AM 43.2 °F 41.5 °F 37.0 °F 79% 30.15 in 10.0 mi ENE 3.5 mph - N/A   Overcast
3:35 AM 42.8 °F - 36.7 °F 79% 30.15 in 10.0 mi Calm Calm - N/A   Mostly Cloudy
3:55 AM 43.2 °F 40.5 °F 36.7 °F 78% 30.16 in 10.0 mi NNE 4.6 mph - N/A   Overcast
4:15 AM 43.9 °F 42.3 °F 36.9 °F 76% 30.16 in 10.0 mi NE 3.5 mph - N/A   Overcast
4:35 AM 44.6 °F - 37.0 °F 75% 30.17 in 10.0 mi Calm Calm - N/A   Overcast
4:55 AM 44.6 °F - 36.7 °F 74% 30.17 in 10.0 mi Calm Calm - N/A   Scattered Clouds
5:15 AM 42.3 °F - 36.0 °F 78% 30.17 in 10.0 mi Calm Calm - N/A   Clear
5:35 AM 41.5 °F 39.6 °F 35.8 °F 80% 30.17 in 10.0 mi ENE 3.5 mph - N/A   Clear
5:55 AM 39.9 °F - 34.9 °F 82% 30.18 in 10.0 mi Calm Calm - N/A   Clear
6:15 AM 39.9 °F - 34.9 °F 82% 30.18 in 10.0 mi Calm Calm - N/A   Clear
6:35 AM 41.2 °F - 35.2 °F 79% 30.19 in 10.0 mi Calm Calm - N/A   Clear
6:55 AM 41.0 °F 39.0 °F 35.1 °F 79% 30.19 in 10.0 mi NNE 3.5 mph - N/A   Clear
7:15 AM 41.2 °F 39.2 °F 34.9 °F 78% 30.20 in 10.0 mi NNE 3.5 mph - N/A   Clear
7:35 AM 38.5 °F - 33.1 °F 81% 30.20 in 10.0 mi Calm Calm - N/A   Clear
7:55 AM 37.9 °F - 33.1 °F 83% 30.21 in 10.0 mi Calm Calm - N/A   Clear
8:15 AM 37.8 °F - 32.7 °F 82% 30.21 in 7.0 mi Calm Calm - N/A   Clear
8:35 AM 37.9 °F - 33.8 °F 85% 30.22 in 7.0 mi Calm Calm - N/A   Clear
8:55 AM 40.8 °F - 35.8 °F 82% 30.22 in 10.0 mi Calm Calm - N/A   Clear
9:15 AM 44.2 °F - 37.6 °F 77% 30.23 in 10.0 mi Calm Calm - N/A   Clear
9:35 AM 47.1 °F - 38.1 °F 71% 30.24 in 10.0 mi Calm Calm - N/A   Clear
9:55 AM 49.8 °F - 38.1 °F 64% 30.25 in 10.0 mi Calm Calm - N/A   Clear
10:15 AM 52.0 °F - 38.1 °F 59% 30.24 in 10.0 mi Calm Calm - N/A   Clear
10:35 AM 53.6 °F - 37.9 °F 55% 30.24 in 10.0 mi Calm Calm - N/A   Clear
10:55 AM 55.4 °F - 37.2 °F 50% 30.23 in 10.0 mi Calm Calm - N/A   Clear
11:15 AM 56.7 °F - 36.0 °F 46% 30.23 in 10.0 mi Calm Calm - N/A   Clear
11:35 AM 58.1 °F - 36.1 °F 44% 30.22 in 10.0 mi Calm Calm - N/A   Clear
11:55 AM 58.8 °F - 35.4 °F 42% 30.22 in 10.0 mi NNW 3.5 mph - N/A   Clear
12:15 PM 59.5 °F - 35.2 °F 40% 30.21 in 10.0 mi Calm Calm - N/A   Clear
12:35 PM 60.4 °F - 34.9 °F 38% 30.21 in 3.0 mi Calm Calm - N/A   Haze
12:55 PM 61.0 °F - 34.7 °F 37% 30.21 in 10.0 mi NE 3.5 mph - N/A   Clear
1:15 PM 61.3 °F - 33.6 °F 35% 30.21 in 10.0 mi Calm Calm - N/A   Clear
1:35 PM 61.9 °F - 32.9 °F 34% 30.21 in 10.0 mi Calm Calm - N/A   Clear
1:55 PM 61.9 °F - 32.0 °F 33% 30.20 in 10.0 mi Calm Calm - N/A   Clear
2:15 PM 62.1 °F - 30.7 °F 31% 30.20 in 10.0 mi Calm Calm - N/A   Clear
2:35 PM 62.1 °F - 31.1 °F 31% 30.20 in 10.0 mi Calm Calm - N/A   Clear
2:55 PM 62.4 °F - 32.7 °F 33% 30.20 in 10.0 mi WNW 4.6 mph - N/A   Clear
3:15 PM 62.1 °F - 32.7 °F 33% 30.19 in 10.0 mi NNW 4.6 mph - N/A   Clear
3:35 PM 62.1 °F - 32.5 °F 33% 30.20 in 10.0 mi NNE 3.5 mph - N/A   Clear
3:55 PM 61.7 °F - 32.4 °F 33% 30.20 in 10.0 mi Calm Calm - N/A   Clear
4:15 PM 61.3 °F - 33.1 °F 35% 30.20 in 10.0 mi Calm Calm - N/A   Clear
4:35 PM 60.8 °F - 32.2 °F 34% 30.19 in 10.0 mi Calm Calm - N/A   Clear
4:55 PM 60.3 °F - 32.0 °F 34% 30.19 in 10.0 mi Calm Calm - N/A   Clear
5:15 PM 59.2 °F - 32.0 °F 36% 30.20 in 10.0 mi Calm Calm - N/A   Clear
5:35 PM 56.7 °F - 33.1 °F 41% 30.20 in 10.0 mi Calm Calm - N/A   Clear
5:55 PM 55.4 °F - 33.3 °F 43% 30.20 in 10.0 mi Calm Calm - N/A   Clear
6:15 PM 52.7 °F - 33.8 °F 49% 30.20 in 10.0 mi Calm Calm - N/A   Clear
6:35 PM 52.9 °F - 34.0 °F 49% 30.21 in 10.0 mi Calm Calm - N/A   Clear
6:55 PM 51.1 °F - 34.0 °F 52% 30.21 in 10.0 mi Calm Calm - N/A   Clear
7:15 PM 50.0 °F - 34.0 °F 54% 30.20 in 10.0 mi SSE 3.5 mph - N/A   Clear
7:35 PM 46.0 °F - 34.2 °F 63% 30.20 in 10.0 mi Calm Calm - N/A   Clear
7:55 PM 47.1 °F - 34.3 °F 61% 30.20 in 10.0 mi Calm Calm - N/A   Clear
8:15 PM 46.0 °F - 34.5 °F 64% 30.20 in 10.0 mi Calm Calm - N/A   Clear
8:35 PM 44.4 °F - 34.3 °F 68% 30.20 in 10.0 mi Calm Calm - N/A   Clear
8:55 PM 43.5 °F - 34.3 °F 70% 30.20 in 10.0 mi Calm Calm - N/A   Clear
9:15 PM 43.2 °F - 34.0 °F 70% 30.21 in 10.0 mi Calm Calm - N/A   Clear
9:35 PM 43.5 °F - 34.2 °F 70% 30.21 in 10.0 mi Calm Calm - N/A   Clear
9:55 PM 43.9 °F - 33.8 °F 68% 30.21 in 10.0 mi Calm Calm - N/A   Clear
10:15 PM 42.6 °F - 33.3 °F 69% 30.21 in 10.0 mi Calm Calm - N/A   Clear
10:35 PM 40.5 °F - 33.4 °F 76% 30.22 in 10.0 mi Calm Calm - N/A   Clear
10:55 PM 40.3 °F - 33.3 °F 76% 30.21 in 10.0 mi Calm Calm - N/A   Clear
11:15 PM 37.6 °F 35.1 °F 32.0 °F 80% 30.21 in 10.0 mi SE 3.5 mph - N/A   Clear
11:35 PM 37.2 °F 34.7 °F 32.0 °F 81% 30.21 in 10.0 mi SE 3.5 mph - N/A   Clear
11:55 PM 36.9 °F 34.3 °F 32.0 °F 83% 30.21 in 10.0 mi ESE 3.5 mph - N/A   Clear